LZIBLOWG

Guest
Details From LZIB - Bratislava Mr Stefanik
To LOWG - Graz Thalerhof
Flight Number -
Tags Generated
Created
Modified
Stats Distance 100 nm / 185 km
Max Altitude 0 ft / 0 m
Waypoints 2
Social Downloads 1
Likes 0
Share VATSIM

Download

Looking for another format? Having issues loading an existing format? Contact us
Advertisement - Login to hide

Notes

Generated

Route

LZIB LOWG

ID Type Via Altitude Latitude Longitude Leg Dist Tot Dist Heading (true) Name
O LZIB APT - 0 ft / 0 m 48.16081˚ 17.19942˚ - 0 nm - -
O LOWG APT - 0 ft / 0 m 46.99065˚ 15.44259˚ 100 nm 100 nm 226° / 225° Graz Thalerhof

Altitude Profile

Advertisement - Login to hide

LZIB

Details ICAO LZIB (BTS)
Name Bratislava/M.R. Stefanik
Region Slovakia
Timezone Europe/Bratislava (UTC+2.0)
Stats Elevation 436 ft / 133 m (AMSL)
Location 48.168314° 17.215597°
Runways 2
Magnetic Variation 4.455° E

METAR

LZIB 202130Z 03005KT CAVOK 16/10 Q1020

Decode

TAF

Not found

Departure Runways

ID Width Length Bearing (true) Bearing (mag) Surface Threshold Offset Overrun Length
04 197 ft / 60 m 9,540 ft / 2,908 m 43.80° 39.34° Concrete 0 ft / 0 m 7 ft / 2 m
13 148 ft / 45 m 9,688 ft / 2,953 m 134.02° 129.56° Concrete 0 ft / 0 m 98 ft / 30 m
22 197 ft / 60 m 9,540 ft / 2,908 m 223.82° 219.36° Concrete 0 ft / 0 m 49 ft / 15 m
31 148 ft / 45 m 9,688 ft / 2,953 m 314.04° 309.58° Concrete 0 ft / 0 m 810 ft / 247 m

LOWG

Details ICAO LOWG (GRZ)
Name Graz Thalerhof
Region Austria
Timezone Europe/Vienna (UTC+2.0)
Stats Elevation 1,115 ft / 340 m (AMSL)
Location 46.990308° 15.439665°
Runways 3
Magnetic Variation 3.971° E

METAR

LOWG 202120Z AUTO 31004KT 280V340 9999 -RA FEW040 BKN070 13/12 Q1021 NOSIG

Decode

TAF

TAF AMD LOWG 201942Z 2019/2118 30004KT 9999 SCT030 SCT200 TX21/2114Z TN10/2103Z TEMPO 2019/2021 VRB08KT 3000 SHRA FEW040CB BKN080 BECMG 2021/2023 SCT030 BKN040 BECMG 2109/2111 14007KT 9999 SCT050 SCT100 TEMPO 2112/2118 FEW050CB BKN080

Decode

Destination Runways

ID Width Length Bearing (true) Bearing (mag) Surface Threshold Offset Overrun Length
17C 148 ft / 45 m 9,852 ft / 3,003 m 169.37° 165.40° Asphalt 853 ft / 260 m 98 ft / 30 m
17L 98 ft / 30 m 2,102 ft / 641 m 169.41° 165.44° Grass 0 ft / 0 m 0 ft / 0 m
17R 82 ft / 25 m 2,496 ft / 761 m 169.40° 165.43° Grass 492 ft / 150 m 0 ft / 0 m
35C 148 ft / 45 m 9,852 ft / 3,003 m 349.37° 345.40° Asphalt 0 ft / 0 m 0 ft / 0 m
35L 82 ft / 25 m 2,496 ft / 761 m 349.40° 345.43° Grass 0 ft / 0 m 0 ft / 0 m
35R 98 ft / 30 m 2,102 ft / 641 m 349.41° 345.44° Grass 0 ft / 0 m 0 ft / 0 m

Approach Navaids

Runway Type Ident Frequency Range Bearing (true) Bearing (mag) Slope Elevation
35C Localiser OEG 110.90 MHz 18 nm / 33 km 349.36° 345.39° - 1,098 ft / 335 m (AMSL)
35C Glidescope OEG 110.90 MHz 10 nm / 19 km 349.37° 345.40° 3.00° 1,098 ft / 335 m (AMSL)
35C DME OEG 110.90 MHz 18 nm / 33 km - - - 1,098 ft / 335 m (AMSL)

Popular Alternatives